Regional Weather Roundup
Issued by NWS

Home | Current Version | Previous Version | Text Only | Print | Product List | Glossary Off
Versions: 1 2 3 4 5 6 7 8 9 10 11 12 13 14 15 16 17 18 19 20 21 22 23 24 25 26 27 28

000
ASUS45 KBOI 200210
RWRID
WEATHER ROUNDUP FOR IDAHO
NATIONAL WEATHER SERVICE BOISE ID
800 PM MDT SAT APR 19 2014

NOTE: "FAIR" INDICATES FEW OR NO CLOUDS BELOW 12000 FEET
WITH NO SIGNIFICANT WEATHER AND/OR OBSTRUCTIONS TO VISIBILITY

IDZ012-014-200300-
SOUTHWEST IDAHO


CITY           SKY/WX    TMP DP  RH WIND       PRES   REMARKS
BOISE          PTCLDY    72  25  17 SE7       29.80S
CALDWELL       PTCLDY    70  30  23 CALM      29.81S
MOUNTAIN HOME  MOCLDY    72  28  19 SE8       29.82F
$$

IDZ016-017-200300-
SOUTHCENTRAL IDAHO


CITY           SKY/WX    TMP DP  RH WIND       PRES   REMARKS
BURLEY         CLEAR     63  31  30 E5        29.89S
JEROME         CLEAR     61  29  29 E7        29.89F
TWIN FALLS     CLEAR     64  34  32 CALM      29.90S
$$

IDZ019>023-200300-
SOUTHEAST IDAHO


CITY           SKY/WX    TMP DP  RH WIND       PRES   REMARKS
IDAHO FALLS    PTCLDY    62  23  22 SW12      29.94S
POCATELLO      CLEAR     65  24  21 CALM      29.94S
REXBURG        PTCLDY    60  20  21 SW9       29.93F
$$

IDZ006-010-011-018-031-032-200300-
CENTRAL IDAHO MOUNTAINS


CITY           SKY/WX    TMP DP  RH WIND       PRES   REMARKS
MCCALL         MOCLDY    58  21  24 SW7       29.88F
HAILEY         PTCLDY    61  21  21 SW8       29.95
STANLEY          N/A     46  20  35 SE6       29.98F
SALMON         PTCLDY    64  16  15 W12       29.83R
CHALLIS        PTCLDY    60   8  12 SW7       29.90F
$$

IDZ002-004-006-007-026-200300-
NORTHERN IDAHO


CITY           SKY/WX    TMP DP  RH WIND       PRES   REMARKS
LEWISTON       CLOUDY    59  30  33 NW33G43   29.93R
LOWELL           N/A     66  31  27 SE9       29.88R
COEUR D`ALENE  CLOUDY    48  36  61 SW3       29.92S
MULLAN PASS    LGT SNOW  38  25  59 SW13G25   29.92R WCI  30
$$



USA.gov is the U.S. government's official web portal to all federal, state and local government web resources and services.